Current conditions around Wisconsin

 

						ASUS43 KMKX 282300
RWRWI

WISCONSIN REGIONAL WEATHER ROUNDUP
NATIONAL WEATHER SERVICE MILWAUKEE/SULLIVAN WI
500 PM CST SUN NOV 28 2021

NOTE: "FAIR" INDICATES FEW OR NO CLOUDS BELOW 12,000 FEET WITH NO
SIGNIFICANT WEATHER AND/OR OBSTRUCTIONS TO VISIBILITY.

WIZ001-002-006>008-014>016-023>028-290000-
NORTHWEST WISCONSIN

CITY           SKY/WX    TMP DP  RH WIND       PRES   REMARKS
SUPERIOR ARPT  PTCLDY    29  14  52 CALM      30.07R
ASHLAND        CLEAR     27  15  61 NW7       30.08R WCI  19
HAYWARD        CLEAR     30  12  47 CALM      30.04S
SIREN          PTCLDY    31  12  46 W5        30.08R WCI  26
CUMBERLAND     CLEAR     32  14  47 W5        30.06R WCI  27
RICE LAKE      CLEAR     32  14  47 W3        30.08R
CHETEK         CLEAR     31  11  43 CALM      30.07S
LADYSMITH        N/A     28  17  64 CALM      30.06R
EAU CLAIRE     NOT AVBL
MENOMONIE        N/A     33  12  41 W3        30.08S
NEW RICHMOND   CLEAR     28   9  43 CALM      30.09R
OSCEOLA        PTCLDY    34  14  43 W3        30.12R
$$

WIZ003>005-009-010-017-018-290000-
NORTH CENTRAL WISCONSIN

CITY           SKY/WX    TMP DP  RH WIND       PRES   REMARKS
MANITOWISH WTR MOCLDY    25  16  68 NW8       30.01R WCI  16
ARBOR VITAE    MOCLDY    27  -4  26 N6        30.01R WCI  20
WOODRUFF       MOCLDY    27  -4  26 N6        30.01R WCI  20
RHINELANDER    CLOUDY    27  15  61 CALM      30.02R
EAGLE RIVER    CLOUDY    26  18  73 N7        30.02R WCI  18
LAND O LAKES   CLOUDY    26  20  79 W6        30.03R WCI  19
PHILLIPS       PTCLDY    27  14  57 CALM      30.02S
TOMAHAWK       PTCLDY    27  15  60 W5        30.02R WCI  21
MEDFORD        CLEAR     28  14  55 W6        30.02R WCI  22
MERRILL        CLEAR     29  14  52 CALM      30.02R
$$

WIZ029-030-035-036-043>047-290000-
CENTRAL WISCONSIN

CITY           SKY/WX    TMP DP  RH WIND       PRES   REMARKS
WAUSAU         CLEAR     30  14  51 W6        30.02R WCI  24
MOSINEE        CLEAR     28  14  54 W8        30.04R WCI  20
MARSHFIELD     CLEAR     28  14  55 W8        30.04R WCI  20
STEVENS POINT  CLEAR     32  12  43 CALM      30.05R
WAUPACA        CLEAR     32  15  49 W8        30.06R WCI  25
WAUTOMA        CLEAR     28  15  58 W7        30.07R WCI  21
WISC RAPIDS    CLEAR     29  13  51 W5        30.06R WCI  24
CAMP DOUGLAS   NOT AVBL
$$

WIZ011>013-019>022-031-037>040-048>050-290000-
NORTHEAST WISCONSIN

CITY           SKY/WX    TMP DP  RH WIND       PRES   REMARKS
ANTIGO         CLEAR     24  16  70 NW3       30.02R
SHAWANO        CLEAR     32  19  58 CALM      30.04R
OCONTO         CLOUDY    32  20  61 NW8       30.04R WCI  25
STURGEON BAY   CLOUDY    33  22  63 NW13G18   30.02R WCI  24
GREEN BAY      CLEAR     32  18  56 N8        30.04R WCI  25
MANITOWOC      MOCLDY    34  19  54 NW12      30.04R WCI  25
APPLETON       PTCLDY    30  16  55 W8        30.02R WCI  23
CLINTONVILLE   CLEAR     32  14  47 N5        30.05R WCI  27
OSHKOSH        CLEAR     31  16  54 NW8       30.04R WCI  23
$$

WIZ032>034-041-042-053>061-290000-
SOUTHWEST WISCONSIN

CITY           SKY/WX    TMP DP  RH WIND       PRES   REMARKS
LA CROSSE      CLEAR     31  17  56 CALM      30.10R
SPARTA         NOT AVBL
VIROQUA        CLEAR     30  13  49 W6        30.07S WCI  24
BOSCOBEL       CLEAR     36   8  31 W3        30.11R
PRAIRIE DU CHI CLEAR     35   7  30 W6        30.12R WCI  30
PLATTEVILLE    CLEAR     32  10  40 W6        30.11R WCI  26
$$

WIZ056-057-062-063-064-067-068-290000-
SOUTH CENTRAL WISCONSIN

CITY           SKY/WX    TMP DP  RH WIND       PRES   REMARKS
REEDSBURG      CLEAR     31  13  46 W8        30.09R WCI  24
BARABOO/DELLS  CLEAR     30  11  45 W5        30.07R WCI  25
LONE ROCK      NOT AVBL
MINERAL POINT  NOT AVBL
MADISON        PTCLDY    32  11  41 NW3       30.06S
MIDDLETON      CLEAR     33  11  41 W6        30.08R WCI  27
WATERTOWN      CLEAR     32  10  40 W6        30.06R WCI  26
MONROE         CLEAR     33   8  34 W9        30.06S WCI  26
JANESVILLE     PTCLDY    34  30  86 W8        30.07R WCI  27
$$

WIZ051-052-058>065-066-070>072-290000-
SOUTHEAST WISCONSIN

CITY           SKY/WX    TMP DP  RH WIND       PRES   REMARKS
MILWAUKEE      PTCLDY    36  13  38 NW8       30.05R WCI  30
WAUKESHA       CLEAR     30  12  47 NW7       30.05R WCI  23
MILWAUKEE/TIMM CLEAR     34  10  37 NW10      30.06R WCI  26
RACINE         CLEAR     35  13  40 NW5       30.07R WCI  31
KENOSHA        CLEAR     33  12  41 W6        30.05R WCI  28
FOND DU LAC    CLEAR     35  14  42 W5        30.05R WCI  31
SHEBOYGAN      CLEAR     33  19  56 W8        30.04R WCI  26
WEST BEND      CLEAR     32  14  47 W6        30.04R WCI  26
JUNEAU         CLEAR     30  13  50 CALM      30.06R
$$

LSZ147-162-290000-
LAKE SUPERIOR

STATION/POSITION TIME  TEMP    WIND        PRES    WAVE
                       AIR SEA DIR/SP/G            HT/PER
                 (UTC) (F)     (DEG/KT/KT) (MB)    (FT/S)
DEVILS ISLAND    2200   30     300/ 11/ 14 1018.7R
PORT WING        2230   31     320/ 10/ 16 1017.9S
SAXON HARBOR     2230   30     280/  6/ 12 1017.6R
$$

LMZ867-665-643>646-290000-
LAKE MICHIGAN

STATION/POSITION TIME  TEMP    WIND        PRES    WAVE
                       AIR SEA DIR/SP/G            HT/PER
                 (UTC) (F)     (DEG/KT/KT) (MB)    (FT/S)
NORTHPORT PIER   2240   36     260/ 13/ 22 1015.9R
KEWAUNEE LAKESHO 2206   36     310/  7/ 10 1014.6
SHEBOYGAN LAKESH 2200   37     300/  9/ 10 1017.2R
PORT WASHINGTON  2240   35     310/  4/  7 1019.0R
MILWAUKEE LAKESH 2230   36     310/ 12/ 15   N/A
S MID LAKE BUOY  2240   38 46  320/ 17/ 25 1016.9R
KENOSHA   LAKESH 2200   38     290/ 11/ 18 1017.6
$$

TC  - TEMPERATURE IN CELSIUS
VSB - VISIBILITY IN STATUTE MILES
WCI - WIND CHILL INDEX
HX  - HEAT INDEX




ASUS43 KMKX 282310
RWRWI

WISCONSIN REGIONAL WEATHER ROUNDUP
NATIONAL WEATHER SERVICE MILWAUKEE/SULLIVAN WI
500 PM CST SUN NOV 28 2021

NOTE: "FAIR" INDICATES FEW OR NO CLOUDS BELOW 12,000 FEET WITH NO
SIGNIFICANT WEATHER AND/OR OBSTRUCTIONS TO VISIBILITY.

WIZ001-002-006>008-014>016-023>028-290000-
NORTHWEST WISCONSIN

CITY           SKY/WX    TMP DP  RH WIND       PRES   REMARKS
SUPERIOR ARPT  MOCLDY    29  14  52 CALM      30.06F
ASHLAND        PTCLDY    27  15  61 NW7       30.08R WCI  19
HAYWARD        MOCLDY    30  12  47 CALM      30.04S
SIREN          MOCLDY    31  12  46 W5        30.08R WCI  26
CUMBERLAND     PTCLDY    32  14  47 W5        30.06R WCI  27
RICE LAKE      PTCLDY    32  14  47 W3        30.08R
CHETEK         PTCLDY    31  11  43 CALM      30.07S
LADYSMITH        N/A     28  17  64 CALM      30.06R
EAU CLAIRE     PTCLDY    30  10  43 W3        30.07S
MENOMONIE        N/A     33  12  41 W3        30.08S
NEW RICHMOND   PTCLDY    28   9  43 CALM      30.09R
OSCEOLA        PTCLDY    34  14  43 W3        30.12R
$$

WIZ003>005-009-010-017-018-290000-
NORTH CENTRAL WISCONSIN

CITY           SKY/WX    TMP DP  RH WIND       PRES   REMARKS
MANITOWISH WTR MOCLDY    25  16  68 NW8       30.01R WCI  16
ARBOR VITAE    MOCLDY    27  -4  26 N6        30.01R WCI  20
WOODRUFF       MOCLDY    27  -4  26 N6        30.01R WCI  20
RHINELANDER    CLOUDY    27  15  61 CALM      30.02R
EAGLE RIVER    CLOUDY    26  18  73 N7        30.02R WCI  18
LAND O LAKES   CLOUDY    26  20  79 W6        30.03R WCI  19
PHILLIPS       MOCLDY    27  14  57 CALM      30.02S
TOMAHAWK       PTCLDY    27  15  60 W5        30.02R WCI  21
MEDFORD        CLEAR     28  14  55 W6        30.02R WCI  22
MERRILL        CLEAR     29  14  52 CALM      30.02R
$$

WIZ029-030-035-036-043>047-290000-
CENTRAL WISCONSIN

CITY           SKY/WX    TMP DP  RH WIND       PRES   REMARKS
WAUSAU         CLEAR     30  14  51 W6        30.02R WCI  24
MOSINEE        CLEAR     28  14  54 W8        30.04R WCI  20
MARSHFIELD     CLEAR     28  14  55 W8        30.04R WCI  20
STEVENS POINT  CLEAR     32  12  43 CALM      30.05R
WAUPACA        CLEAR     32  15  49 W8        30.06R WCI  25
WAUTOMA        CLEAR     28  15  58 W7        30.07R WCI  21
WISC RAPIDS    CLEAR     29  13  51 W5        30.06R WCI  24
CAMP DOUGLAS   NOT AVBL
$$

WIZ011>013-019>022-031-037>040-048>050-290000-
NORTHEAST WISCONSIN

CITY           SKY/WX    TMP DP  RH WIND       PRES   REMARKS
ANTIGO         CLEAR     24  16  70 NW3       30.02R
SHAWANO        CLEAR     32  19  58 CALM      30.04R
OCONTO         CLOUDY    32  20  61 NW8       30.04R WCI  25
STURGEON BAY   CLOUDY    33  22  63 NW13G18   30.02R WCI  24
GREEN BAY      CLEAR     32  18  56 N8        30.04R WCI  25
MANITOWOC      MOCLDY    34  19  54 NW12      30.04R WCI  25
APPLETON       PTCLDY    30  16  55 W8        30.02R WCI  23
CLINTONVILLE   CLEAR     32  14  47 N5        30.05R WCI  27
OSHKOSH        CLEAR     31  16  54 NW8       30.04R WCI  23
$$

WIZ032>034-041-042-053>061-290000-
SOUTHWEST WISCONSIN

CITY           SKY/WX    TMP DP  RH WIND       PRES   REMARKS
LA CROSSE      CLEAR     31  17  56 CALM      30.10R
SPARTA         CLEAR     29  11  47 CALM      30.10R
VIROQUA        CLEAR     30  13  49 W6        30.07S WCI  24
BOSCOBEL       CLEAR     36   8  31 W3        30.11R
PRAIRIE DU CHI CLEAR     35   7  30 W6        30.12R WCI  30
PLATTEVILLE    CLEAR     32  10  40 W6        30.11R WCI  26
$$

WIZ056-057-062-063-064-067-068-290000-
SOUTH CENTRAL WISCONSIN

CITY           SKY/WX    TMP DP  RH WIND       PRES   REMARKS
REEDSBURG      CLEAR     31  13  46 W8        30.09R WCI  24
BARABOO/DELLS  CLEAR     30  11  45 W5        30.07R WCI  25
LONE ROCK      CLEAR     32  11  41 W8        30.10R WCI  25
MINERAL POINT  NOT AVBL
MADISON        PTCLDY    32  11  41 NW3       30.06S
MIDDLETON      CLEAR     33  11  41 W6        30.08R WCI  27
WATERTOWN      CLEAR     32  10  40 W6        30.06R WCI  26
MONROE         CLEAR     33   9  36 W12       30.07S WCI  24
JANESVILLE     PTCLDY    34  30  86 W8        30.07R WCI  27
$$

WIZ051-052-058>065-066-070>072-290000-
SOUTHEAST WISCONSIN

CITY           SKY/WX    TMP DP  RH WIND       PRES   REMARKS
MILWAUKEE      PTCLDY    36  13  38 NW8       30.05R WCI  30
WAUKESHA       CLEAR     30  12  47 NW7       30.05R WCI  23
MILWAUKEE/TIMM CLEAR     34  10  37 NW10      30.06R WCI  26
RACINE         CLEAR     35  13  40 NW5       30.07R WCI  31
KENOSHA        CLEAR     33  12  41 W6        30.05R WCI  28
FOND DU LAC    CLEAR     35  14  42 W5        30.05R WCI  31
SHEBOYGAN      CLEAR     33  19  56 W8        30.04R WCI  26
WEST BEND      CLEAR     32  14  47 W6        30.04R WCI  26
JUNEAU         CLEAR     30  13  50 CALM      30.06R
$$

LSZ147-162-290000-
LAKE SUPERIOR

STATION/POSITION TIME  TEMP    WIND        PRES    WAVE
                       AIR SEA DIR/SP/G            HT/PER
                 (UTC) (F)     (DEG/KT/KT) (MB)    (FT/S)
DEVILS ISLAND    2200   30     300/ 11/ 14 1018.7R
PORT WING        2230   31     320/ 10/ 16 1017.9S
SAXON HARBOR     2230   30     280/  6/ 12 1017.6R
$$

LMZ867-665-643>646-290000-
LAKE MICHIGAN

STATION/POSITION TIME  TEMP    WIND        PRES    WAVE
                       AIR SEA DIR/SP/G            HT/PER
                 (UTC) (F)     (DEG/KT/KT) (MB)    (FT/S)
NORTHPORT PIER   2240   36     260/ 13/ 22 1015.9R
KEWAUNEE LAKESHO 2230   35     330/ 10/ 15 1014.8R
SHEBOYGAN LAKESH 2300   35     280/ 11/ 13 1018.0R
PORT WASHINGTON  2240   35     310/  4/  7 1019.0R
MILWAUKEE LAKESH 2250   36     320/  8/ 12   N/A
S MID LAKE BUOY  2250   38 46  330/ 19/ 23 1017.0R   6/ 7
KENOSHA   LAKESH 2300   36     300/  6/  8 1017.9
$$

TC  - TEMPERATURE IN CELSIUS
VSB - VISIBILITY IN STATUTE MILES
WCI - WIND CHILL INDEX
HX  - HEAT INDEX




ASUS43 KMKX 282320
RWRWI

WISCONSIN REGIONAL WEATHER ROUNDUP
NATIONAL WEATHER SERVICE MILWAUKEE/SULLIVAN WI
500 PM CST SUN NOV 28 2021

NOTE: "FAIR" INDICATES FEW OR NO CLOUDS BELOW 12,000 FEET WITH NO
SIGNIFICANT WEATHER AND/OR OBSTRUCTIONS TO VISIBILITY.

WIZ001-002-006>008-014>016-023>028-290000-
NORTHWEST WISCONSIN

CITY           SKY/WX    TMP DP  RH WIND       PRES   REMARKS
SUPERIOR ARPT  MOCLDY    29  14  52 CALM      30.06F
ASHLAND        PTCLDY    27  15  61 NW7       30.08R WCI  19
HAYWARD        MOCLDY    30  12  47 CALM      30.04S
SIREN          MOCLDY    30  13  48 W3        30.08R
CUMBERLAND     PTCLDY    30  18  59 W3        30.07R
RICE LAKE      PTCLDY    32  15  48 CALM      30.08R
CHETEK         PTCLDY    31  11  43 CALM      30.07S
LADYSMITH        N/A     27  17  66 CALM      30.06R
EAU CLAIRE     PTCLDY    30  10  43 W3        30.07S
MENOMONIE        N/A     32  11  42 NW3       30.08S
NEW RICHMOND   PTCLDY    28  10  45 CALM      30.09R
OSCEOLA        PTCLDY    34  14  43 W3        30.12R
$$

WIZ003>005-009-010-017-018-290000-
NORTH CENTRAL WISCONSIN

CITY           SKY/WX    TMP DP  RH WIND       PRES   REMARKS
MANITOWISH WTR PTCLDY    24  15  68 NW5       30.01S WCI  18
ARBOR VITAE    CLEAR     26  -4  27 N3        30.01R
WOODRUFF       CLEAR     26  -4  27 N3        30.01R
RHINELANDER    CLOUDY    27  15  61 CALM      30.02R
EAGLE RIVER    CLOUDY    25  18  74 N5        30.01S WCI  19
LAND O LAKES   CLOUDY    26  20  79 NW3       30.03R
PHILLIPS       MOCLDY    26  14  60 CALM      30.02S
TOMAHAWK       CLEAR     26  15  61 CALM      30.03R
MEDFORD        CLEAR     27  14  58 W6        30.03R WCI  20
MERRILL        CLEAR     29  14  53 CALM      30.02S
$$

WIZ029-030-035-036-043>047-290000-
CENTRAL WISCONSIN

CITY           SKY/WX    TMP DP  RH WIND       PRES   REMARKS
WAUSAU         CLEAR     30  14  51 W6        30.02R WCI  24
MOSINEE        CLEAR     28  14  54 W8        30.04R WCI  20
MARSHFIELD     CLEAR     28  14  55 W8        30.04R WCI  20
STEVENS POINT  CLEAR     32  13  45 CALM      30.05R
WAUPACA        CLEAR     31  15  52 W5        30.06R WCI  26
WAUTOMA        CLEAR     28  15  58 W7        30.07R WCI  21
WISC RAPIDS    CLEAR     29  13  51 W5        30.06R WCI  24
CAMP DOUGLAS   CLEAR     24   9  53 W6        30.07R WCI  17
$$

WIZ011>013-019>022-031-037>040-048>050-290000-
NORTHEAST WISCONSIN

CITY           SKY/WX    TMP DP  RH WIND       PRES   REMARKS
ANTIGO         CLEAR     23  16  75 N3        30.03R
SHAWANO        CLEAR     31  19  62 CALM      30.06R
OCONTO         CLOUDY    32  20  61 NW6       30.05R WCI  26
STURGEON BAY   CLOUDY    33  22  63 NW13G18   30.02R WCI  24
GREEN BAY      CLEAR     32  18  56 N8        30.04R WCI  25
MANITOWOC      MOCLDY    34  19  54 NW12      30.04R WCI  25
APPLETON       PTCLDY    30  16  55 W8        30.02R WCI  23
CLINTONVILLE   CLEAR     32  14  47 CALM      30.06R
OSHKOSH        CLEAR     31  16  54 NW8       30.04R WCI  23
$$

WIZ032>034-041-042-053>061-290000-
SOUTHWEST WISCONSIN

CITY           SKY/WX    TMP DP  RH WIND       PRES   REMARKS
LA CROSSE      CLEAR     31  17  56 CALM      30.10R
SPARTA         CLEAR     29  11  47 CALM      30.10R
VIROQUA        CLEAR     30  13  49 NW3       30.07S
BOSCOBEL       CLEAR     36   8  31 W3        30.11R
PRAIRIE DU CHI CLEAR     35  10  35 W6        30.12R WCI  30
PLATTEVILLE    CLEAR     32  10  39 W6        30.11R WCI  26
$$

WIZ056-057-062-063-064-067-068-290000-
SOUTH CENTRAL WISCONSIN

CITY           SKY/WX    TMP DP  RH WIND       PRES   REMARKS
REEDSBURG      CLEAR     30  12  46 W7        30.08R WCI  24
BARABOO/DELLS  CLEAR     29  11  47 W5        30.08R WCI  24
LONE ROCK      CLEAR     32  11  41 W8        30.10R WCI  25
MINERAL POINT  NOT AVBL
MADISON        PTCLDY    32  11  41 NW3       30.06S
MIDDLETON      CLEAR     31  11  43 W5        30.08R WCI  27
WATERTOWN      CLEAR     32  10  41 W5        30.07R WCI  27
MONROE         CLEAR     33   9  36 W12       30.07S WCI  24
JANESVILLE     PTCLDY    34  30  86 W8        30.07R WCI  27
$$

WIZ051-052-058>065-066-070>072-290000-
SOUTHEAST WISCONSIN

CITY           SKY/WX    TMP DP  RH WIND       PRES   REMARKS
MILWAUKEE      PTCLDY    36  13  38 NW8       30.05R WCI  30
WAUKESHA       CLEAR     30  12  47 NW7       30.05R WCI  23
MILWAUKEE/TIMM CLEAR     34  10  37 NW10      30.06R WCI  26
RACINE         CLEAR     35  13  40 NW5       30.07R WCI  31
KENOSHA        CLEAR     33  12  41 W6        30.05R WCI  28
FOND DU LAC    CLEAR     35  14  42 W5        30.05R WCI  31
SHEBOYGAN      CLEAR     33  19  56 W8        30.04R WCI  26
WEST BEND      CLEAR     32  14  47 W6        30.05R WCI  26
JUNEAU         PTCLDY    30  13  49 CALM      30.07R
$$

LSZ147-162-290000-
LAKE SUPERIOR

STATION/POSITION TIME  TEMP    WIND        PRES    WAVE
                       AIR SEA DIR/SP/G            HT/PER
                 (UTC) (F)     (DEG/KT/KT) (MB)    (FT/S)
DEVILS ISLAND    2300   30     330/ 11/ 12 1018.6F
PORT WING        2230   31     320/ 10/ 16 1017.9S
SAXON HARBOR     2230   30     280/  6/ 12 1017.6R
$$

LMZ867-665-643>646-290000-
LAKE MICHIGAN

STATION/POSITION TIME  TEMP    WIND        PRES    WAVE
                       AIR SEA DIR/SP/G            HT/PER
                 (UTC) (F)     (DEG/KT/KT) (MB)    (FT/S)
NORTHPORT PIER   2240   36     260/ 13/ 22 1015.9R
KEWAUNEE LAKESHO 2248   35     330/ 11/ 17 1015.2R
SHEBOYGAN LAKESH 2300   35     280/ 11/ 13 1018.0R
PORT WASHINGTON  2240   35     310/  4/  7 1019.0R
MILWAUKEE LAKESH 2300   36     320/  7/  8   N/A
S MID LAKE BUOY  2300   38 46  330/ 17/ 23 1017.2
KENOSHA   LAKESH 2300   36     300/  6/  8 1017.9
$$

TC  - TEMPERATURE IN CELSIUS
VSB - VISIBILITY IN STATUTE MILES
WCI - WIND CHILL INDEX
HX  - HEAT INDEX